Hayward, CA

12:27 AM PDT on June 25, 2017 (GMT -0700)
Hayward Executive

Weather History for KHWD - March, 2014

Change the Weather History Date:

Friday, March 21, 2014

  Actual Average Record
Temperature  
Mean Temperature 55 °F 56 °F  
Max Temperature 64 °F 64 °F 76 °F (2000)
Min Temperature 45 °F 48 °F 41 °F (2008)
Degree Days  
Heating Degree Days 10    
Month to date heating degree days 134  
Since 1 July heating degree days 1652  
Cooling Degree Days 0    
Month to date cooling degree days 0  
Year to date cooling degree days 0  
Growing Degree Days 4 (Base 50)    
Moisture  
Dew Point 45 °F    
Average Humidity 75    
Maximum Humidity 93    
Minimum Humidity 56    
Precipitation  
Precipitation 0.00 in - 0.42 in (2005)
Month to date precipitation 0.26  
Year to date precipitation 2.63  
Since 1 July precipitation 3.83  
Sea Level Pressure  
Sea Level Pressure 29.99 in    
Wind  
Wind Speed 5 mph (NW)    
Max Wind Speed 17 mph    
Max Gust Speed 21 mph    
Visibility 10 miles    
Events      
T = Trace of Precipitation, MM = Missing Value Source: NWS Daily Summary

Daily Weather History Graph

Daily Weather History Graph

Search for Another Location

Airport or City:

Trip Planner

Search our weather history database for the weather conditions in past years. The results will help you decide how hot, cold, wet, or windy it might be!

Date:

Astronomy

Mar. 21, 2014 Rise Set
Actual Time 7:10 AM PDT 7:21 PM PDT
Civil Twilight 6:44 AM PDT 7:47 PM PDT
Nautical Twilight 6:13 AM PDT 8:18 PM PDT
Astronomical Twilight 5:42 AM PDT 8:49 PM PDT
Moon No Moon Rise 10:11 AM PDT (3/21)
Length of Visible Light 13h 03m
Length of Day
12h 11m
Waning Gibbous, 74% of the Moon is Illuminated
Mar 21
Waning Gibbous
Mar 23
Last Quarter
Mar 30
New
Apr 7
First Quarter
Apr 15
Full

Hourly Weather History & Observations

Time (PDT) Temp. Windchill Dew Point Humidity Pressure Visibility Wind Dir Wind Speed Gust Speed Precip Events Conditions
12:54 AM 48.9 °F - 45.0 °F 86% 30.01 in 9.0 mi North 5.8 mph - N/A   Clear
1:54 AM 48.9 °F - 44.1 °F 83% 30.00 in 10.0 mi ENE 4.6 mph - N/A   Partly Cloudy
2:06 AM 48.2 °F - 44.6 °F 87% 29.97 in 10.0 mi ENE 3.5 mph - N/A   Mostly Cloudy
2:32 AM 48.2 °F - 42.8 °F 82% 29.97 in 10.0 mi Calm Calm - N/A   Scattered Clouds
2:54 AM 46.9 °F - 43.0 °F 86% 30.00 in 10.0 mi Calm Calm - N/A   Partly Cloudy
3:28 AM 46.4 °F 45.2 °F 42.8 °F 87% 29.96 in 10.0 mi ENE 3.5 mph - N/A   Mostly Cloudy
3:38 AM 46.4 °F - 42.8 °F 87% 29.96 in 10.0 mi Calm Calm - N/A   Partly Cloudy
3:54 AM 46.9 °F - 43.0 °F 86% 29.99 in 10.0 mi Calm Calm - N/A   Clear
4:36 AM 46.4 °F - 42.8 °F 87% 29.96 in 10.0 mi Calm Calm - N/A   Mostly Cloudy
4:54 AM 46.0 °F - 43.0 °F 89% 29.99 in 10.0 mi Calm Calm - N/A   Mostly Cloudy
5:22 AM 46.4 °F - 42.8 °F 87% 29.95 in 10.0 mi Calm Calm - N/A   Scattered Clouds
5:54 AM 46.0 °F - 43.0 °F 89% 29.99 in 9.0 mi Calm Calm - N/A   Scattered Clouds
6:19 AM 46.4 °F - 44.6 °F 93% 29.96 in 9.0 mi Calm Calm - N/A   Mostly Cloudy
6:50 AM 46.4 °F - 44.6 °F 93% 29.96 in 9.0 mi Calm Calm - N/A   Scattered Clouds
6:54 AM 46.9 °F - 44.1 °F 90% 29.99 in 9.0 mi Calm Calm - N/A   Scattered Clouds
7:01 AM 46.4 °F - 44.6 °F 93% 29.97 in 9.0 mi Calm Calm - N/A   Mostly Cloudy
7:10 AM 48.2 °F - 44.6 °F 87% 29.97 in 8.0 mi Calm Calm - N/A   Partly Cloudy
7:54 AM 48.0 °F - 45.0 °F 89% 30.01 in 8.0 mi Calm Calm - N/A   Clear
8:54 AM 51.1 °F - 46.9 °F 86% 30.02 in 9.0 mi West 3.5 mph - N/A   Clear
9:30 AM 51.8 °F - 46.4 °F 82% 29.99 in 9.0 mi West 6.9 mph - N/A   Mostly Cloudy
9:54 AM 53.1 °F - 46.9 °F 80% 30.03 in 9.0 mi West 4.6 mph - N/A   Scattered Clouds
10:54 AM 55.0 °F - 46.9 °F 74% 30.04 in 10.0 mi West 4.6 mph - N/A   Clear
11:54 AM 57.0 °F - 46.0 °F 67% 30.03 in 10.0 mi NW 3.5 mph - N/A   Clear
12:54 PM 57.9 °F - 46.0 °F 65% 30.01 in 10.0 mi Calm Calm - N/A   Clear
1:54 PM 63.0 °F - 46.0 °F 54% 30.00 in 10.0 mi WNW 5.8 mph - N/A   Clear
2:54 PM 63.0 °F - 48.0 °F 58% 29.99 in 10.0 mi WNW 11.5 mph - N/A   Clear
3:54 PM 63.0 °F - 48.0 °F 58% 29.98 in 10.0 mi WNW 10.4 mph - N/A   Clear
4:54 PM 62.1 °F - 48.0 °F 60% 29.98 in 10.0 mi WNW 15.0 mph - N/A   Clear
5:54 PM 57.9 °F - 46.9 °F 67% 29.98 in 10.0 mi NW 12.7 mph - N/A   Clear
6:54 PM 55.9 °F - 46.9 °F 72% 29.99 in 10.0 mi NW 11.5 mph - N/A   Clear
7:54 PM 53.1 °F - 46.9 °F 80% 29.99 in 10.0 mi NNW 9.2 mph - N/A   Clear
8:54 PM 51.1 °F - 46.9 °F 86% 30.01 in 9.0 mi Calm Calm - N/A   Clear
9:54 PM 51.1 °F - 46.9 °F 86% 30.02 in 10.0 mi NNW 5.8 mph - N/A   Clear
10:54 PM 50.0 °F - 46.0 °F 86% 30.03 in 10.0 mi NNW 4.6 mph - N/A   Partly Cloudy
11:54 PM 48.9 °F - 46.0 °F 90% 30.03 in 10.0 mi NNW 5.8 mph - N/A   Clear